Tracking 25710 objects as of 6-Jul-2022
HD Live streaming from Space Station
objects crossing your sky now

STARLINK-3882

Track STARLINK-3882 now!
10-day predictions
STARLINK-3882 is classified as:


NORAD ID: 52475
Int'l Code: 2022-049AA
Perigee: 441.2 km
Apogee: 443.5 km
Inclination: 53.2 °
Period: 93.3 minutes
Semi major axis: 6813 km
RCS: Unknown
Launch date: May 6, 2022
Source: United States (US)
Launch site: AIR FORCE EASTERN TEST RANGE (AFETR)
aabbcc
Your satellite tracking list
Your tracking list is empty




NASA's NSSDC Master Catalog

Two Line Element Set (TLE):
1 52475U 22049AA  22186.58334491 -.01054064  00000-0 -25361-1 0  9996
2 52475  53.2175 330.4030 0001718  39.5488 225.5526 15.43696379  1309
Source of the keplerian elements: AFSPC